Theta_e
288 288 288 288 288 288 288 288 287 287 287 287 287 287 287 287 287 287 287 287 287 287 287 287 286 286 286 286 286 286 286 286 288 289 291 292 292 292 292 292 292 293 293 293 293 293 293 293 293 293 293 293 293 292 292 293 293 292 293 293 293 293 293 293 293 294 294 295 295 295 296 295 293 292 292 291 291 290 289 289 289 288 288 288 288
288 288 288 288 288 288 288 288 287 287 287 287 287 287 287 287 287 287 287 287 287 287 287 287 287 287 286 286 286 286 286 285 286 286 287 289 290 291 291 291 291 292 292 292 292 293 293 293 293 293 293 293 292 292 292 292 292 292 292 292 293 293 293 293 292 293 293 293 294 294 294 293 292 292 292 292 292 291 290 289 288 288 288 288 288
288 288 288 287 288 287 287 288 287 287 287 287 287 287 287 287 286 286 286 287 287 287 287 287 287 287 287 287 287 286 286 286 285 285 285 286 287 289 290 290 291 291 291 291 291 291 292 292 292 292 292 292 292 292 292 291 291 291 291 291 291 292 292 293 292 292 292 292 293 293 293 292 292 292 293 293 293 292 290 289 289 288 288 288 288
288 288 288 287 287 287 287 287 287 287 287 286 286 286 286 286 286 286 286 286 286 286 286 286 286 286 286 286 287 286 286 286 286 285 285 285 285 286 287 288 289 290 290 290 290 290 291 291 291 291 291 291 291 291 291 291 291 291 290 291 291 291 291 291 292 292 292 291 292 292 292 292 292 292 292 291 290 290 289 289 288 288 287 287 287
288 288 287 287 287 287 287 287 287 286 286 286 286 286 286 286 286 286 286 286 286 285 285 285 285 285 285 285 286 286 286 286 286 286 286 285 285 285 285 286 286 287 288 289 290 290 290 290 290 291 291 291 291 290 291 291 290 290 290 290 290 290 290 290 291 291 291 291 291 292 292 291 291 290 290 289 288 288 288 288 287 287 287 287 287
288 288 287 287 287 287 287 287 286 286 286 286 286 286 286 286 286 286 285 285 285 285 285 285 285 285 285 285 285 285 285 285 285 286 286 286 286 285 285 285 285 285 286 287 288 289 290 290 290 290 290 290 290 290 290 290 290 290 290 290 290 290 289 289 290 290 290 290 290 290 290 290 289 288 288 288 288 287 287 286 286 286 286 286 286
289 288 288 288 288 288 287 287 286 286 286 285 285 285 285 285 285 285 285 285 285 285 285 284 284 284 284 284 284 284 284 284 285 285 285 286 286 286 285 285 285 285 285 285 286 286 288 289 289 289 289 289 289 289 289 289 289 289 289 289 289 289 289 289 289 289 289 289 290 289 289 289 289 288 288 288 287 287 287 285 285 285 285 285 285
289 289 288 288 288 288 287 287 286 286 285 285 285 285 285 285 285 285 285 284 284 284 284 284 284 284 284 284 284 284 284 284 284 284 284 285 285 285 285 285 286 286 286 286 285 285 285 286 287 288 289 289 289 289 289 289 289 289 289 289 289 289 289 289 289 288 289 289 289 289 288 288 287 287 287 286 285 285 286 285 284 284 284 285 285
289 288 288 287 287 287 286 286 286 285 285 285 284 284 284 284 284 284 284 284 284 284 284 284 284 284 283 283 283 283 283 283 283 283 284 284 285 285 285 285 285 286 286 286 286 286 285 285 285 286 287 288 289 289 289 289 289 289 289 289 288 288 288 288 288 288 288 288 289 289 287 286 286 286 285 285 285 285 285 285 284 284 284 284 284
288 287 287 286 285 285 285 285 284 284 284 284 283 283 283 283 284 283 283 283 283 283 283 283 283 283 283 283 283 283 282 282 283 283 283 283 284 285 285 285 285 285 286 286 286 286 286 286 285 285 285 286 287 288 289 289 289 289 289 289 288 288 288 288 288 288 288 288 289 289 287 286 286 286 285 285 285 285 285 284 284 284 283 283 283
286 285 285 284 284 283 283 283 283 283 283 283 283 283 283 283 283 283 282 282 282 282 282 283 283 283 283 282 282 282 282 282 282 282 282 283 284 284 285 285 285 285 285 285 286 286 286 286 285 285 285 285 285 287 288 288 289 289 289 289 289 288 288 288 288 288 288 288 288 289 288 287 287 286 286 286 285 285 285 284 284 284 283 283 283
284 284 283 283 282 282 281 281 281 282 282 282 282 282 282 282 281 281 281 281 281 281 282 282 282 282 282 281 281 281 281 281 281 282 282 283 284 284 284 284 285 285 285 285 285 285 285 285 285 285 285 285 285 286 286 287 288 289 289 289 289 289 289 288 288 288 288 288 288 288 288 288 288 287 286 286 285 285 285 284 284 284 284 283 284
282 282 281 281 280 280 280 280 280 280 280 280 280 280 279 279 279 279 279 279 280 280 280 280 280 280 280 280 280 280 280 281 281 281 282 283 283 284 284 284 284 284 284 284 285 285 285 285 285 285 285 285 286 286 286 286 287 288 288 289 288 288 289 289 289 289 288 288 288 288 289 289 289 288 287 286 286 285 284 284 284 284 284 284 285
280 280 279 279 278 278 278 278 278 278 278 278 277 277 277 277 277 277 277 277 278 278 278 278 278 278 278 278 279 279 279 279 280 281 281 282 282 283 283 283 284 284 284 284 284 284 284 284 285 285 285 285 285 286 286 286 287 287 288 288 288 288 288 288 288 289 289 289 288 288 288 288 289 289 288 287 286 285 285 284 284 284 284 285 286
278 277 277 277 276 276 276 276 276 276 275 275 275 274 275 275 275 275 275 275 275 275 275 275 275 275 275 275 276 276 276 277 278 279 280 280 281 282 282 282 283 283 283 283 284 284 284 284 285 285 285 285 285 285 286 286 286 287 287 287 288 288 288 288 288 288 288 289 289 289 288 288 288 289 288 288 287 286 286 286 285 285 285 285 285
276 275 275 275 275 275 274 274 274 273 273 272 272 272 272 272 272 272 271 271 271 271 271 272 272 272 272 273 273 274 274 275 276 277 278 279 280 280 281 281 281 282 282 282 283 283 284 284 284 284 285 285 285 285 285 285 286 286 287 287 287 287 287 288 288 288 288 288 289 289 289 288 288 288 288 288 287 287 286 286 285 285 284 284 284
274 274 274 274 273 273 272 272 271 271 270 270 270 270 269 269 268 268 268 268 268 268 269 269 269 269 270 270 271 271 272 272 274 275 276 277 278 279 279 280 280 281 281 282 282 282 283 283 284 284 284 284 284 284 284 285 286 286 287 287 287 287 287 287 287 288 287 288 288 288 288 288 288 288 288 288 287 286 285 284 284 284 284 283 284
273 272 272 271 271 270 270 269 269 268 268 268 267 267 266 266 266 266 266 266 266 266 266 266 266 267 267 268 268 269 269 270 271 272 273 274 276 276 277 278 279 279 280 280 281 281 282 283 283 283 283 283 283 283 284 285 286 286 287 287 287 287 287 287 287 287 287 287 287 287 288 288 288 288 288 288 287 286 285 284 284 284 283 283 284
271 270 270 269 269 268 268 267 267 266 266 266 265 265 265 265 265 265 264 264 264 264 265 265 265 265 266 266 267 267 267 268 268 270 271 272 273 274 275 276 277 278 279 279 280 280 281 281 281 282 282 283 283 283 284 285 285 286 286 286 286 286 287 287 287 287 287 287 287 287 287 287 287 288 288 288 288 287 286 285 285 284 284 284 284
269 268 268 267 267 266 266 265 265 265 265 264 264 264 264 264 264 263 263 263 263 263 263 264 264 264 264 265 265 265 266 266 267 268 270 271 272 273 274 275 276 277 277 278 279 279 279 280 280 281 281 282 283 283 284 285 285 286 286 286 286 286 287 287 287 287 287 287 287 286 286 287 287 287 287 288 288 287 286 286 285 285 284 284 284
267 267 266 266 265 265 265 264 264 264 264 263 263 263 263 263 263 263 263 263 263 263 263 263 263 263 264 264 264 265 266 266 267 268 269 270 271 272 273 273 274 275 276 277 278 279 279 279 279 279 280 280 281 282 283 284 285 286 286 286 286 286 286 287 287 287 287 287 286 286 286 286 286 286 287 287 287 287 287 286 285 285 285 285 284
266 265 265 265 264 264 264 264 263 263 263 263 263 262 262 262 262 262 262 262 262 262 262 263 263 263 264 264 264 265 265 266 266 267 268 269 270 271 271 272 273 274 275 276 277 278 278 279 279 279 279 280 280 281 282 283 285 286 286 287 287 286 286 287 287 287 287 286 286 286 286 285 285 286 286 286 286 287 287 286 285 285 284 285 285
264 264 264 264 264 263 263 263 263 263 263 262 262 262 262 262 262 262 262 262 262 262 262 263 263 263 263 264 264 264 264 265 265 266 267 268 269 270 271 271 272 272 273 274 275 276 277 277 278 278 279 279 280 281 282 282 283 284 285 287 287 287 287 287 287 287 286 286 286 285 285 285 285 285 285 285 286 286 286 286 286 285 284 284 284
264 264 263 263 263 263 263 263 263 262 262 262 262 262 262 262 262 262 262 262 262 262 262 262 263 263 263 263 263 264 264 264 265 265 266 267 268 269 269 270 270 271 271 272 273 273 274 275 275 276 277 278 279 280 281 282 283 283 285 286 287 287 288 288 288 287 287 286 285 285 285 285 285 285 285 285 285 285 285 285 285 285 284 284 284
263 263 263 263 263 263 263 262 262 262 262 262 262 262 262 262 261 261 261 262 262 262 262 262 262 262 263 263 263 263 264 264 264 265 266 267 267 268 268 269 270 270 270 271 271 271 272 273 274 275 276 277 278 279 280 281 282 283 284 285 286 286 287 288 288 288 287 286 286 285 285 285 285 285 285 285 285 284 284 284 284 285 284 283 283
263 263 263 263 263 262 262 262 262 262 262 262 262 262 261 261 261 261 261 261 261 261 261 262 262 262 262 263 263 264 264 264 265 265 266 266 267 267 268 268 269 270 270 270 270 271 272 272 273 274 275 276 277 278 279 279 280 281 283 284 285 285 286 287 288 288 287 287 286 285 285 285 285 285 284 284 284 284 284 284 283 283 283 282 282
263 263 262 262 262 262 262 262 262 262 262 262 262 261 261 261 261 261 261 261 261 261 261 262 262 262 263 263 264 264 265 265 266 266 266 267 267 267 267 268 268 269 269 269 270 270 271 272 272 273 273 274 275 276 277 278 280 281 281 283 284 285 286 287 287 287 287 287 286 286 285 285 285 284 284 283 283 283 283 283 282 282 282 281 280
262 262 262 262 262 262 262 262 262 262 262 262 261 261 261 261 261 261 261 261 261 262 262 263 263 264 264 265 265 266 266 267 267 267 267 268 268 268 269 269 269 269 269 270 270 271 271 272 272 273 273 274 275 275 276 278 280 281 281 282 284 285 285 286 287 287 287 287 286 286 285 285 284 284 283 283 283 283 283 282 282 281 280 280 279
262 262 262 262 262 262 262 262 262 262 261 261 261 261 261 261 261 262 262 262 263 263 264 265 266 266 266 267 267 267 268 268 268 269 269 270 270 270 270 271 271 271 271 271 272 272 272 273 273 273 274 274 275 276 276 277 279 282 282 283 284 284 285 285 286 286 287 287 286 286 285 284 283 283 283 282 282 282 282 281 281 280 279 279 279
262 262 262 262 262 262 262 262 262 261 261 261 261 261 261 261 262 263 263 263 264 265 266 267 267 267 268 268 268 268 268 269 269 269 270 270 270 271 271 271 272 272 272 272 273 273 273 273 273 274 274 274 275 276 276 277 278 280 282 283 283 284 284 285 285 286 286 286 286 285 285 284 283 282 282 282 282 281 281 280 280 279 278 278 279
262 262 262 262 262 262 262 261 261 261 261 261 261 261 261 261 262 262 263 264 265 265 266 267 267 268 268 268 268 268 269 269 269 270 270 270 270 271 271 271 272 272 272 273 273 273 273 273 273 273 274 274 275 275 276 276 277 278 280 282 283 283 284 284 285 285 286 286 286 285 284 284 283 282 281 281 281 280 280 279 279 278 277 278 278
262 262 261 261 261 261 261 261 261 261 261 261 261 261 261 261 261 262 262 263 264 265 266 266 267 267 268 268 268 268 268 269 269 270 270 270 271 271 271 272 272 272 273 273 273 273 273 273 273 273 273 274 275 275 275 276 276 277 278 280 282 283 284 284 285 285 285 285 285 285 284 283 283 282 281 281 280 279 278 278 278 277 277 277 278
261 261 261 261 261 261 261 261 261 261 261 261 261 261 261 261 261 261 262 263 263 264 265 266 266 267 267 268 268 268 269 269 270 270 270 270 271 271 271 272 272 272 273 273 272 272 272 272 273 273 273 274 274 274 275 275 276 276 276 277 280 282 283 284 284 284 285 285 285 284 283 283 282 281 280 280 279 278 277 277 277 277 276 277 277
261 261 260 261 261 261 261 261 261 260 260 260 260 260 261 261 261 261 262 262 263 263 264 265 265 266 267 267 268 268 269 269 269 270 270 270 271 271 271 272 271 271 272 272 272 272 272 272 272 273 273 273 273 274 274 275 275 276 276 277 278 280 282 283 283 284 284 284 284 284 283 282 282 281 280 279 278 277 277 276 276 276 276 276 276
260 260 260 260 260 260 260 260 260 260 260 260 260 261 261 261 261 262 262 262 262 263 263 264 264 265 266 267 267 268 268 269 269 270 270 270 270 271 271 271 271 270 270 270 271 271 271 272 272 272 273 273 273 273 274 275 275 276 277 277 278 280 281 282 283 283 283 283 283 283 283 282 281 280 279 278 277 276 276 275 275 275 275 275 276
259 260 260 260 260 260 260 260 260 260 260 260 261 261 261 261 262 262 262 262 263 263 263 263 264 264 265 266 266 266 267 268 269 269 270 270 270 271 270 270 270 270 270 270 271 271 271 272 272 273 273 273 273 273 274 274 275 276 277 277 278 279 281 282 282 283 283 283 283 282 282 281 280 279 279 278 277 276 276 275 275 275 275 275 275
259 259 259 259 259 259 259 259 260 260 260 260 261 261 261 261 262 262 262 263 263 263 263 264 264 264 265 265 265 266 266 267 268 269 269 270 270 270 269 269 269 269 270 270 271 271 272 272 273 274 274 274 274 274 274 274 275 276 276 277 278 279 281 282 282 282 282 282 282 282 281 280 279 279 278 277 276 276 275 275 274 274 274 274 274
259 259 259 259 259 259 259 259 260 260 260 260 260 261 261 261 262 262 262 263 263 263 264 264 264 264 264 265 265 265 266 266 267 268 269 269 269 269 269 269 269 270 270 271 271 272 272 273 274 274 274 275 275 275 275 275 275 276 277 277 278 279 280 281 282 282 282 281 281 281 280 279 279 278 278 277 276 275 275 274 274 274 274 274 274
258 258 258 259 259 259 259 259 259 259 260 260 260 261 261 261 262 262 262 263 263 263 263 264 264 264 264 265 265 266 267 267 268 269 269 268 268 269 269 269 270 270 270 271 271 271 272 272 273 273 274 275 276 275 275 275 276 276 277 278 278 279 280 281 281 281 281 281 281 280 279 278 278 277 277 276 275 275 274 273 273 273 273 273 273
258 258 258 258 258 259 259 259 259 259 259 260 260 260 261 261 261 262 262 262 262 263 263 264 264 264 264 265 266 267 268 268 268 268 268 268 268 268 268 268 268 268 269 269 269 269 270 271 272 272 274 275 276 276 276 276 276 277 277 278 279 280 280 281 281 281 281 280 280 279 278 277 277 276 276 275 275 274 274 273 273 273 273 273 273
258 258 258 258 258 258 258 258 259 259 259 260 260 260 260 261 261 261 261 262 262 262 263 263 264 264 264 264 266 267 267 266 266 266 266 266 266 266 266 266 266 266 266 266 267 268 268 269 270 271 273 275 277 277 277 277 277 278 278 279 280 280 280 281 281 280 280 279 278 278 277 276 276 275 275 274 274 273 273 273 273 273 273 272 272
257 257 258 258 258 258 258 258 258 259 259 259 259 260 260 260 260 260 261 261 261 262 262 263 263 263 263 263 264 265 264 264 264 264 264 264 264 265 265 264 264 264 264 264 265 266 266 267 268 271 273 275 277 278 278 278 278 279 279 279 280 280 280 280 280 279 279 278 277 276 276 275 275 275 274 274 273 273 272 272 272 272 272 272 272
257 257 257 257 257 258 258 258 258 258 258 259 259 259 259 259 259 260 260 260 261 261 262 262 262 262 262 262 263 263 263 262 262 263 263 263 263 263 263 263 262 262 263 263 264 264 265 266 267 269 272 274 275 277 277 278 278 278 278 279 279 279 279 278 278 278 277 276 275 275 275 274 274 273 273 273 272 272 272 272 271 271 271 271 271
257 257 257 257 257 257 257 258 258 258 258 258 258 258 258 259 259 259 259 260 260 261 261 261 261 261 261 261 262 262 262 262 262 262 262 262 262 262 262 261 261 261 262 263 263 264 264 265 266 268 270 273 274 275 276 276 276 277 277 277 277 277 277 277 276 276 276 275 274 274 273 273 273 272 272 272 272 271 271 271 271 271 271 271 271
257 257 257 257 257 257 257 258 258 258 258 258 258 258 258 258 258 259 259 259 260 260 260 261 261 261 261 261 261 261 262 261 261 261 261 261 261 261 261 261 261 261 262 262 263 264 265 266 266 267 269 271 272 273 274 275 275 275 275 275 275 275 275 275 275 275 275 274 273 272 272 272 272 272 271 271 271 271 271 270 271 271 270 270 271
257 257 257 257 257 257 257 257 257 257 257 257 257 258 258 258 258 258 259 259 259 260 260 260 260 261 261 261 261 261 261 261 261 261 261 261 261 261 260 261 261 261 261 262 263 264 265 266 266 267 268 269 271 272 272 273 273 274 274 274 274 274 273 273 273 273 273 273 272 272 271 271 271 271 271 271 270 270 270 270 270 270 270 270 270
257 257 257 257 257 257 257 257 257 257 257 257 257 257 258 258 258 258 258 259 259 260 260 260 260 260 261 261 261 261 261 261 261 261 261 261 261 261 261 261 261 261 262 262 263 264 265 265 266 267 268 269 269 270 270 271 272 272 272 273 273 273 272 272 272 272 272 272 272 271 271 270 270 270 270 270 270 270 270 270 270 270 270 270 270
257 257 257 257 257 257 257 257 257 257 257 257 257 257 257 258 258 258 258 259 259 259 260 260 260 260 260 261 261 261 261 261 261 261 261 261 261 261 261 262 262 262 262 263 263 264 264 265 266 266 267 268 268 269 269 270 270 271 271 271 272 272 272 272 272 271 271 271 271 271 270 270 270 270 270 270 270 269 269 269 269 269 269 269 270
257 257 257 257 257 257 257 257 257 257 257 257 257 257 257 257 258 258 258 259 259 259 260 260 260 260 260 260 260 260 261 261 261 261 261 261 261 261 262 262 262 263 263 263 264 264 264 265 265 266 266 266 267 268 268 268 269 269 269 270 270 270 271 271 270 270 270 270 270 270 270 269 269 269 269 269 269 269 269 269 269 269 269 269 270
258 257 257 257 256 257 257 257 257 257 257 257 257 257 257 257 258 258 258 258 259 259 259 259 260 260 260 260 260 260 260 260 260 260 260 261 261 261 262 262 263 263 264 264 264 264 265 265 265 266 266 266 266 267 267 267 268 268 268 268 269 269 269 269 269 269 269 269 269 269 269 269 269 269 269 269 269 269 269 268 268 269 269 269 269
259 258 258 257 257 257 257 257 257 257 257 257 257 257 257 257 257 258 258 258 258 258 259 259 259 259 259 260 260 260 260 260 260 260 260 261 261 261 262 262 262 263 263 264 265 265 265 265 266 266 266 267 267 267 267 267 267 267 268 268 268 268 268 268 269 269 269 269 269 269 269 268 268 268 268 268 268 268 268 268 268 268 268 268 268
Wind_Speed
10 9 9 9 8 10 11 14 16 17 18 19 20 21 23 24 26 26 27 27 28 28 28 28 28 27 26 25 24 23 22 22 21 19 18 19 19 20 22 23 25 27 27 28 28 29 30 31 32 33 32 34 35 35 36 36 36 37 36 36 37 37 35 30 19 15 19 26 29 30 35 39 40 42 44 45 45 45 44 44 44 44 44 43 43
10 9 9 9 8 8 8 9 11 13 15 15 17 19 21 23 25 26 27 28 28 28 28 29 29 29 28 28 26 25 24 23 22 22 21 21 20 20 21 22 24 26 27 28 28 29 30 31 32 32 31 33 35 35 35 35 35 36 37 35 36 37 35 33 26 18 17 23 28 29 31 36 40 41 43 45 45 46 46 46 46 46 46 45 44
7 8 9 9 10 10 10 10 11 14 15 16 17 18 19 21 22 23 24 26 27 27 27 28 29 29 30 29 29 28 27 25 24 23 22 22 22 21 21 21 23 25 26 28 28 28 29 31 32 32 31 32 33 33 34 35 35 35 36 35 35 36 36 35 31 24 19 21 27 31 32 35 40 42 43 45 45 45 47 48 48 48 47 47 46
4 6 6 7 7 9 9 10 12 15 16 17 19 20 20 21 22 22 23 24 25 26 26 27 28 29 29 30 30 30 30 29 27 25 24 23 23 22 22 22 23 24 26 27 27 27 29 30 31 31 31 32 33 33 33 34 34 35 35 35 35 35 34 34 34 31 24 20 24 31 34 36 39 42 43 44 44 44 46 46 46 47 48 47 47
6 7 7 7 8 9 9 10 12 15 17 20 22 23 23 24 24 24 25 26 27 26 27 27 27 27 27 28 28 29 30 30 30 30 29 27 26 24 23 22 22 23 25 26 26 27 27 29 30 30 30 31 32 32 32 32 33 34 35 35 34 34 33 33 35 35 30 24 23 27 31 34 35 37 40 42 41 41 42 43 44 45 45 46 46
10 11 12 12 13 14 14 14 15 17 19 21 23 24 25 26 26 27 28 30 30 30 30 30 29 29 28 27 27 28 28 29 30 31 32 31 31 30 28 26 25 24 24 25 25 26 27 28 29 29 29 31 32 31 31 32 32 33 34 34 33 33 33 33 34 34 33 31 27 25 29 33 32 31 36 41 41 40 39 39 40 41 42 43 45
14 15 17 18 19 21 21 21 22 23 24 25 25 25 25 25 25 27 29 29 30 31 31 32 33 32 32 31 30 30 29 29 30 31 32 32 33 33 33 31 30 29 27 26 25 25 26 27 28 29 30 31 32 32 31 31 31 32 33 33 32 32 32 32 32 32 32 32 29 27 28 32 33 32 34 39 41 40 40 36 34 37 40 42 44
16 17 18 19 21 23 25 27 29 30 30 30 30 29 28 27 27 28 29 29 30 30 31 32 33 34 34 34 34 33 32 31 32 31 31 31 32 33 34 34 34 33 32 31 29 27 27 27 27 29 30 31 32 32 32 31 31 31 32 31 30 31 31 31 30 29 30 29 28 28 26 28 32 30 29 31 33 35 37 35 32 36 41 43 45
13 13 14 15 18 21 24 28 31 34 35 35 35 35 34 33 33 33 33 32 32 32 32 33 33 34 34 34 35 35 34 35 35 33 32 31 32 33 34 35 36 36 36 35 34 32 30 29 29 29 29 31 32 32 32 32 32 32 32 30 29 30 31 30 29 28 27 26 26 26 22 22 29 29 26 31 36 35 34 34 33 35 38 39 43
10 11 14 17 20 22 25 28 30 32 34 35 36 37 38 38 38 37 37 37 37 36 36 35 35 34 34 34 34 34 35 36 37 37 36 35 34 34 34 35 36 36 37 37 37 36 34 33 32 32 31 30 31 32 32 33 34 35 35 33 31 31 30 30 29 28 26 24 25 25 19 19 27 31 30 35 38 34 33 36 34 31 30 29 32
13 17 20 22 24 25 26 28 29 30 31 32 34 36 37 39 39 39 39 39 39 37 37 36 36 35 35 35 36 36 36 37 38 39 39 37 36 36 36 36 36 36 36 37 38 39 38 37 36 35 33 32 32 31 31 32 34 36 37 37 36 35 34 32 30 29 27 25 26 26 22 22 29 32 32 33 34 33 35 37 34 29 27 23 20
20 23 24 25 26 26 26 26 27 29 29 30 32 33 34 36 38 39 40 39 38 37 36 36 36 37 37 37 38 38 39 40 41 40 38 36 35 36 37 37 36 36 36 36 36 37 38 39 39 37 36 35 34 32 32 32 33 34 36 38 38 39 39 38 35 32 29 27 27 27 27 29 30 30 32 33 32 33 34 33 33 34 32 28 23
24 25 26 26 25 24 24 25 26 28 28 29 30 31 32 34 36 37 38 38 39 39 38 38 38 38 37 37 38 39 40 42 41 39 38 37 36 37 38 38 38 38 38 37 37 37 37 37 38 38 38 37 35 34 33 33 33 34 35 36 38 39 41 43 42 40 37 33 31 32 34 34 31 29 33 35 34 33 32 32 35 35 31 31 34
23 24 25 25 23 23 24 25 26 27 27 27 29 31 32 34 34 35 35 36 38 39 40 41 41 41 40 40 40 41 42 43 41 39 39 39 38 38 39 39 39 39 40 39 39 39 39 38 37 37 38 37 36 35 34 34 34 34 35 35 37 38 40 42 44 45 44 41 38 39 41 38 35 32 31 33 37 38 36 36 36 35 35 37 38
23 23 24 25 24 24 24 25 26 26 28 29 30 31 32 32 32 32 32 34 36 38 41 43 44 46 45 44 44 45 46 44 41 40 40 40 39 39 39 39 39 40 41 41 41 41 40 40 39 39 39 39 38 37 36 35 35 34 34 35 37 38 39 40 42 43 44 43 43 45 46 42 40 37 33 33 39 43 43 43 42 41 42 40 36
23 23 23 23 23 23 24 26 28 29 30 30 30 31 31 31 32 33 34 37 38 39 41 42 44 46 47 46 45 47 48 46 42 42 42 40 40 39 38 38 38 39 40 41 42 42 41 40 40 39 39 40 40 40 39 37 35 34 34 35 37 37 38 40 41 42 42 42 43 46 47 45 42 40 38 35 37 41 41 40 40 39 35 29 28
22 22 22 22 23 24 25 27 29 31 30 30 31 32 32 34 35 35 35 37 38 38 39 40 42 43 45 46 45 46 49 47 43 42 42 41 39 38 37 37 36 37 39 41 42 42 41 41 40 39 40 40 41 42 41 38 36 35 35 36 36 36 38 40 40 40 41 43 44 46 48 47 43 41 41 39 38 38 37 33 34 36 29 18 17
21 21 21 23 24 25 26 27 29 30 31 31 33 34 35 36 37 35 34 35 38 39 38 40 42 42 41 42 41 42 46 46 42 40 41 39 38 39 38 37 36 37 39 41 42 42 41 41 41 41 41 43 44 45 43 39 37 36 35 35 34 33 36 39 38 37 38 39 42 45 48 47 44 42 42 42 41 39 38 37 37 35 28 20 18
19 21 23 24 25 26 26 28 29 30 31 32 33 34 36 36 36 35 35 36 38 40 39 38 41 41 38 38 38 38 42 44 41 39 39 38 37 38 38 37 36 36 36 38 40 42 42 44 43 42 42 43 43 44 43 40 39 38 37 35 31 32 36 39 38 34 34 35 38 41 42 43 43 41 41 42 41 41 44 45 41 36 31 30 26
20 23 24 25 25 26 27 28 29 29 31 33 34 34 34 35 36 36 37 37 38 39 38 38 41 42 38 36 37 37 38 41 39 36 36 36 34 34 35 35 35 36 36 36 37 38 41 44 43 41 40 41 42 43 43 42 41 41 40 36 32 34 39 40 37 34 33 34 35 36 36 37 38 37 37 38 39 42 45 47 44 41 38 35 31
22 23 24 25 26 27 27 27 29 30 31 32 34 34 34 35 36 36 37 38 38 38 38 38 40 41 39 36 37 36 35 37 36 34 33 33 32 32 33 33 34 36 37 37 37 36 39 42 43 43 43 43 43 43 43 43 42 42 42 40 40 42 43 40 35 32 32 33 33 32 33 34 33 33 35 37 38 40 43 45 45 45 43 39 33
23 24 25 26 27 28 28 28 29 30 31 31 33 35 35 34 35 35 36 37 37 37 38 37 37 39 38 35 35 35 34 34 35 33 33 33 32 31 32 32 33 35 35 35 35 34 36 38 40 42 44 44 43 44 43 42 42 42 43 44 45 47 46 41 35 30 29 30 29 29 30 30 30 31 33 35 37 39 40 42 44 44 45 45 40
24 25 26 27 28 28 29 29 29 30 31 31 32 34 35 34 34 34 34 35 36 36 36 35 35 36 35 33 33 34 34 34 34 33 33 32 31 31 32 32 33 34 34 34 35 34 34 34 35 37 40 42 43 44 44 43 43 42 42 42 44 46 45 41 34 29 28 28 27 26 27 29 30 31 32 34 37 39 39 38 39 41 42 44 44
24 26 27 28 28 29 29 30 30 30 31 31 31 32 33 34 33 33 32 33 33 32 33 33 32 32 32 31 33 34 34 34 34 33 33 34 33 33 34 34 33 33 35 36 36 35 35 36 37 40 42 44 45 46 46 45 45 44 42 41 42 43 41 37 33 30 28 27 25 25 27 30 30 31 33 35 34 35 36 36 36 37 38 39 40
26 27 28 28 29 30 30 30 30 30 29 29 30 31 32 32 31 32 32 32 30 30 31 32 31 31 30 30 32 35 36 36 36 35 35 35 35 35 35 35 34 34 35 37 37 38 40 41 42 42 43 44 46 47 46 45 44 43 42 41 41 40 38 35 32 29 27 25 25 26 29 31 33 33 33 32 30 29 31 33 33 33 33 33 35
27 28 29 29 29 30 31 30 30 29 29 29 29 30 30 30 30 31 31 31 30 30 31 31 30 31 31 31 33 35 36 36 36 37 37 36 36 36 36 35 35 35 36 38 38 39 40 40 40 40 39 40 41 41 42 43 43 43 42 41 40 39 37 34 30 28 26 25 26 28 31 32 31 31 29 27 28 29 30 30 30 30 31 30 28
28 29 30 30 30 30 29 30 30 30 30 30 29 29 29 28 29 30 31 31 31 31 30 31 30 28 28 30 32 33 33 33 33 34 34 34 36 36 36 35 36 36 36 37 37 38 38 38 38 38 39 40 40 39 39 41 43 43 42 40 39 39 37 35 33 30 28 27 27 29 31 30 27 26 27 27 28 29 30 30 29 28 29 29 24
27 29 30 30 30 29 28 29 30 30 30 30 28 29 30 29 29 31 32 32 32 31 29 29 28 27 27 28 29 28 28 28 28 30 31 33 34 34 32 32 32 32 32 34 36 38 38 37 36 35 35 35 34 32 33 36 38 39 40 39 38 37 36 35 34 32 30 29 28 28 27 26 25 26 27 27 28 29 29 30 30 28 28 27 22
27 28 29 29 29 28 28 29 29 30 30 29 29 30 30 29 29 31 33 32 30 31 31 29 29 29 29 29 28 26 24 25 29 33 35 35 34 33 32 31 31 31 31 34 36 36 33 31 30 29 28 26 26 26 29 32 33 33 34 34 32 31 31 31 31 31 30 29 28 27 25 24 25 26 26 26 27 28 29 30 29 27 27 26 23
27 27 27 27 28 28 28 28 29 29 29 29 29 30 31 30 28 28 31 33 32 32 32 32 33 34 34 32 31 29 30 33 35 36 36 35 35 35 35 35 36 36 35 36 37 33 29 27 27 26 25 23 22 22 24 27 28 28 27 30 30 28 29 30 30 30 30 29 28 27 25 24 24 24 24 25 25 26 28 30 30 27 27 25 21
26 27 27 27 28 28 28 29 29 28 28 28 27 28 30 32 32 30 29 30 32 33 33 33 34 34 34 34 33 32 33 35 36 36 36 35 35 35 36 36 36 36 36 36 33 28 25 24 24 24 25 24 22 22 23 23 24 25 25 27 29 29 29 29 29 28 28 27 26 26 25 24 24 24 25 25 24 24 26 28 28 27 27 25 21
25 27 27 28 28 28 27 28 28 27 27 27 26 26 26 28 33 36 34 31 30 32 32 32 32 32 32 33 34 34 33 33 34 36 36 36 35 35 35 35 35 35 36 34 28 24 23 22 21 22 24 23 22 24 25 24 23 25 26 25 26 27 27 26 27 27 25 24 24 24 23 24 24 24 25 25 24 23 24 25 26 26 25 23 21
25 27 27 27 28 27 26 26 26 26 26 26 26 26 25 24 26 32 37 38 36 34 32 29 27 28 30 31 32 34 35 34 34 34 35 35 34 34 34 35 35 34 34 31 24 21 22 23 23 24 25 24 23 24 25 24 25 26 26 26 25 25 25 25 25 24 24 24 24 22 22 24 24 23 24 25 25 24 24 24 24 24 22 20 19
26 26 26 26 26 26 25 25 26 26 27 27 26 26 26 25 24 26 29 32 35 38 40 37 33 29 29 30 31 33 34 34 33 33 34 34 33 33 34 34 33 32 32 29 24 22 24 24 24 25 27 27 26 25 23 23 25 26 26 25 26 26 24 23 23 23 23 23 23 22 22 23 24 23 22 22 23 22 22 22 23 22 21 20 18
26 26 26 25 24 24 25 25 26 27 27 27 27 26 26 26 26 26 25 25 26 30 35 40 42 38 34 32 32 32 32 32 32 32 33 33 33 33 31 29 28 29 30 30 28 27 27 26 26 28 29 30 29 28 26 24 24 25 25 24 24 25 24 22 21 21 22 22 22 21 22 23 24 24 24 23 22 22 21 22 23 23 22 21 19
25 26 26 25 24 25 25 25 26 27 26 26 26 26 26 26 26 26 26 25 25 26 28 33 38 39 36 34 33 32 32 33 33 32 32 32 32 31 27 23 23 25 27 28 30 30 29 29 30 31 31 31 30 30 29 26 25 25 26 25 24 25 25 23 21 21 22 22 22 22 22 23 24 24 24 23 24 25 24 24 24 24 23 23 21
25 25 26 26 26 26 27 27 26 26 25 25 26 26 26 26 26 26 25 25 25 26 27 29 31 32 33 35 36 36 34 34 34 34 33 32 29 27 24 23 23 24 25 27 30 31 31 32 32 31 31 31 30 31 30 29 28 26 26 27 27 26 24 22 21 20 21 22 22 23 24 24 25 26 25 23 23 23 23 23 23 22 23 24 22
23 24 24 26 26 26 27 27 26 25 25 25 25 24 24 25 25 25 25 25 25 26 27 28 27 26 28 32 36 37 35 33 31 31 33 33 30 26 25 25 25 25 26 28 30 29 29 31 32 32 32 32 30 28 28 28 27 26 25 26 27 27 26 22 20 20 22 22 22 23 25 25 26 28 27 24 22 21 21 22 22 20 20 21 20
24 24 24 25 25 25 25 26 26 26 25 25 24 24 23 24 24 24 24 25 26 26 26 26 26 26 27 31 33 34 31 27 23 23 27 31 30 27 25 25 25 25 25 27 29 29 30 32 33 33 33 32 29 27 26 26 26 25 24 24 25 27 28 25 21 21 23 23 23 24 25 26 26 27 26 24 23 23 23 23 23 22 21 21 21
25 26 26 25 24 24 25 25 25 25 24 24 24 24 23 23 23 24 24 25 25 25 25 25 26 27 29 30 31 30 26 22 21 22 25 27 27 26 24 22 23 24 26 27 29 31 32 33 34 34 32 31 27 24 23 24 24 24 25 26 25 25 25 24 23 22 23 24 24 24 24 24 25 25 24 24 24 25 25 25 25 25 23 22 22
25 26 26 26 25 25 24 24 23 23 23 23 23 23 23 24 24 24 25 25 25 25 25 25 26 28 29 30 30 30 25 22 22 23 23 23 24 23 23 23 23 25 27 28 29 31 32 34 35 34 31 27 25 23 22 22 23 24 25 24 23 24 25 25 24 24 24 23 23 23 23 24 25 25 24 24 24 25 25 24 23 23 22 21 21
24 25 26 26 25 25 24 23 23 23 23 22 22 21 22 23 24 25 25 25 24 25 25 25 27 29 30 29 30 29 25 22 22 23 23 23 23 23 24 25 26 26 27 28 29 31 33 35 35 32 27 21 15 16 19 21 23 23 21 22 23 24 24 24 23 23 22 22 22 22 23 24 25 25 24 23 23 24 23 22 22 22 21 20 21
23 24 25 25 24 24 23 24 24 23 22 21 21 21 21 22 24 24 24 24 24 23 23 25 28 30 30 29 29 27 25 24 24 23 22 23 23 24 25 28 28 28 27 27 28 30 33 35 33 29 26 26 21 13 7 7 12 15 17 19 20 20 19 19 19 20 20 20 20 21 21 22 22 21 21 22 23 23 22 22 22 21 20 21 21
22 23 23 23 23 22 22 23 23 22 22 21 21 21 21 22 23 23 23 22 23 23 23 25 27 29 30 30 29 27 26 25 24 23 22 23 24 25 27 29 29 29 28 27 28 29 31 32 32 30 28 27 24 20 16 10 4 4 8 11 14 14 15 16 18 20 21 21 20 20 20 20 20 20 21 22 23 22 22 21 21 21 21 21 20
21 22 22 22 21 21 21 21 21 21 22 22 22 22 22 22 22 22 22 22 22 23 24 25 26 27 27 28 28 27 26 25 23 22 23 23 24 26 27 28 28 28 28 28 28 29 30 30 31 31 30 27 24 21 18 14 10 5 2 4 7 8 10 13 15 18 20 21 21 21 20 20 20 21 22 22 23 23 22 22 22 22 21 21 20
19 19 20 20 20 21 21 21 21 21 21 22 22 23 22 22 22 22 22 22 22 23 24 25 26 26 26 26 26 26 25 25 24 23 23 24 25 26 27 27 27 27 27 28 28 29 29 28 28 28 27 25 23 21 18 15 12 8 5 1 2 4 6 9 12 14 16 18 19 20 20 20 20 21 21 22 22 21 21 21 22 21 21 21 20
17 18 18 19 19 20 20 20 20 21 21 21 21 21 21 22 22 22 22 23 23 22 23 24 25 25 25 25 25 25 25 25 24 24 24 24 25 25 26 27 27 27 28 29 30 30 30 28 27 26 25 23 22 20 18 16 13 10 8 6 4 3 4 6 9 11 13 15 17 19 20 19 19 20 20 20 20 20 20 20 20 20 20 20 20
16 17 17 18 18 18 19 20 21 21 21 21 21 21 21 22 22 23 23 23 23 22 23 23 24 25 25 25 25 25 25 25 25 25 25 25 25 26 27 27 28 28 29 30 31 31 31 30 28 27 25 24 23 21 19 17 15 14 12 10 7 5 4 6 8 10 12 13 15 17 18 19 19 19 20 19 19 19 19 19 18 18 19 19 19
16 16 17 17 17 17 18 19 19 20 20 20 20 21 21 22 22 22 22 23 23 22 22 23 24 24 25 25 26 26 26 26 26 27 27 27 27 27 27 28 29 29 30 31 31 31 30 30 29 29 28 27 25 23 21 19 18 17 15 13 10 8 7 7 9 10 12 14 15 16 17 18 18 18 18 18 19 18 18 18 18 18 19 18 17
15 15 15 16 16 16 16 17 17 18 19 19 20 21 22 22 22 22 22 22 23 23 23 23 24 24 24 25 26 26 26 26 26 27 27 28 28 28 29 29 29 30 30 31 31 31 30 29 29 29 29 29 28 27 25 23 21 19 16 14 13 11 11 11 12 13 14 15 17 18 19 20 20 19 19 19 19 19 18 18 18 18 18 18 17
14 14 14 15 15 15 16 16 16 17 18 18 19 20 21 21 21 22 22 22 22 23 23 23 23 24 24 24 25 25 26 26 26 27 28 28 29 29 29 29 29 29 30 30 30 31 31 30 30 29 28 28 28 28 27 25 23 21 19 17 16 15 15 15 15 15 16 18 19 20 21 22 22 21 21 20 20 20 19 18 18 18 17 16 16
Wind_Direction
52 51 45 40 31 24 18 16 16 13 9 6 3 2 -0 359 359 357 356 354 353 351 349 349 348 347 348 350 352 352 351 350 349 345 338 329 320 313 309 306 302 298 296 293 290 287 282 280 278 277 276 274 272 269 267 264 261 256 253 251 247 244 240 237 244 252 242 239 241 239 233 229 227 225 224 224 225 226 228 229 230 228 227 226 227
42 38 36 34 27 20 9 4 4 2 1 358 355 354 353 353 352 350 348 346 345 344 341 340 341 340 340 341 343 344 343 343 342 341 339 333 327 320 314 309 305 301 298 294 291 290 285 281 279 279 278 275 272 271 268 265 263 259 255 252 249 247 243 240 242 250 247 237 235 235 232 226 224 224 222 223 225 225 224 224 226 227 228 227 226
32 27 25 23 18 13 4 356 353 352 352 350 346 345 343 344 343 341 339 338 336 336 334 333 334 334 334 335 336 336 335 334 334 333 332 330 326 322 317 312 307 303 299 295 293 291 287 282 279 279 279 276 272 270 269 266 263 260 258 254 252 251 247 243 242 245 248 241 232 230 228 223 222 223 223 224 226 224 222 222 223 224 225 226 227
359 3 5 5 5 3 358 352 346 345 346 344 342 338 335 334 334 332 329 328 327 327 327 327 328 328 329 329 330 330 329 328 326 324 323 321 319 317 315 311 307 304 300 297 295 291 287 283 281 280 277 275 272 270 267 266 263 260 259 257 254 253 251 247 246 245 247 244 234 229 227 225 224 224 222 221 221 221 221 221 221 222 223 225 227
341 345 349 350 349 348 347 342 337 338 338 337 336 334 330 329 328 327 325 323 322 321 320 321 322 322 322 322 323 324 324 323 321 319 317 315 312 309 307 305 303 302 301 299 296 293 288 284 282 281 277 272 271 269 266 264 263 260 259 258 256 255 253 250 248 247 246 245 240 232 227 226 225 222 218 214 213 216 219 220 220 220 221 223 225
333 334 336 338 339 340 339 335 331 330 328 328 328 326 324 323 322 322 322 321 320 318 318 318 318 317 316 316 316 316 317 315 314 314 312 311 309 306 303 301 299 297 296 296 296 293 289 286 283 281 276 271 269 268 266 264 262 260 258 258 257 256 254 251 248 247 247 247 246 236 226 224 222 219 217 213 210 210 212 216 219 220 220 221 223
321 322 322 324 327 331 332 331 328 326 323 322 321 318 317 316 313 314 315 315 314 314 313 314 314 314 313 313 312 311 310 308 306 306 307 306 305 304 302 300 297 295 292 291 292 291 289 286 284 280 275 272 270 268 267 264 262 260 259 258 257 254 253 251 248 246 246 248 247 238 229 224 221 220 220 215 212 212 209 206 211 215 217 219 220
312 312 313 316 321 324 325 325 323 322 321 320 319 318 317 314 311 310 310 309 308 307 307 308 308 309 308 308 308 307 305 302 299 298 298 298 298 298 298 297 295 293 291 289 287 287 287 285 283 280 275 272 269 267 266 264 263 262 260 258 256 253 251 249 247 244 244 246 246 241 231 223 219 220 218 209 208 215 212 204 205 209 212 216 219
309 313 317 321 323 322 320 318 317 316 316 317 318 318 317 316 314 312 311 310 309 307 306 305 304 303 303 303 303 303 300 298 296 294 291 290 289 289 290 291 290 289 289 288 286 284 283 282 282 282 280 276 272 270 267 265 263 261 261 258 255 252 250 249 245 243 242 243 245 241 229 219 217 214 208 203 206 213 211 206 211 212 209 213 218
322 326 326 325 324 321 318 314 311 310 310 312 313 314 314 314 313 312 312 311 311 310 308 306 303 301 300 299 298 297 295 293 293 293 291 289 286 284 283 282 281 282 283 284 285 284 282 281 280 281 281 279 276 273 269 266 264 262 261 258 254 251 249 248 245 242 241 241 242 239 229 223 221 215 211 212 212 211 206 204 210 211 205 211 221
327 326 325 324 322 319 315 310 307 306 306 307 309 309 310 310 310 310 310 311 311 310 307 304 302 300 299 297 296 294 292 291 291 291 291 289 286 283 282 279 277 276 277 276 278 281 282 281 280 279 278 276 276 275 271 268 265 263 262 259 256 252 248 247 246 243 241 242 243 240 234 234 230 220 218 219 214 210 209 206 206 203 198 205 219
326 324 322 320 318 315 312 309 307 306 307 308 308 308 308 307 307 308 309 310 310 308 305 303 301 299 297 296 295 293 292 291 291 290 288 286 284 282 281 280 278 276 274 272 272 273 276 278 279 278 276 273 273 273 271 270 267 264 263 260 257 255 251 248 247 244 242 243 245 243 238 240 238 225 218 218 214 212 213 210 207 205 203 207 213
321 318 315 314 314 314 313 311 308 307 308 309 308 308 307 306 306 307 307 307 306 304 302 301 299 298 297 295 293 292 291 291 290 289 288 286 284 283 282 281 280 278 276 274 273 272 271 271 272 273 273 272 270 268 267 267 266 264 263 261 258 256 253 251 250 248 246 244 245 246 242 242 243 235 224 218 213 211 211 212 212 211 211 216 218
316 314 313 314 316 316 314 312 310 308 309 309 308 306 306 305 304 304 304 303 302 301 301 300 299 297 296 295 294 292 290 290 289 289 288 287 286 285 284 283 281 279 278 276 275 274 272 270 268 268 269 269 267 265 264 263 262 261 260 258 257 256 254 253 251 250 249 246 246 249 248 245 245 245 237 224 215 212 211 212 214 215 218 224 225
315 314 313 314 316 317 317 314 312 310 310 309 308 306 305 303 302 303 303 301 299 298 298 297 297 296 295 294 294 292 289 289 289 290 290 289 289 288 286 284 283 281 280 278 276 274 272 271 268 266 267 266 265 264 263 261 259 257 256 255 255 255 253 252 251 250 249 247 246 249 251 250 247 248 246 235 225 221 219 218 218 218 221 226 229
316 315 314 315 317 318 318 314 311 311 311 310 308 306 305 304 302 302 301 299 297 296 295 295 295 295 295 295 294 293 291 290 291 291 291 291 291 290 288 285 283 281 279 278 277 275 273 271 269 267 265 265 266 266 265 261 257 255 253 253 254 253 252 253 253 251 250 248 248 249 251 251 249 247 247 244 235 226 221 220 220 217 218 224 229
315 315 315 316 316 316 315 313 311 312 312 310 308 307 306 304 303 303 302 300 298 297 296 295 295 294 294 295 295 294 294 294 294 295 293 292 292 292 291 288 285 282 280 279 277 276 274 271 269 267 266 266 267 267 266 262 257 252 251 251 252 252 253 254 254 253 251 250 249 250 252 251 250 248 245 245 242 229 215 212 213 211 210 217 227
316 315 314 314 314 313 313 312 311 311 310 309 308 307 306 306 305 305 304 300 299 298 297 297 295 294 294 295 296 296 296 296 298 298 296 295 294 293 292 290 287 283 281 279 278 277 275 273 270 268 267 267 267 267 265 261 257 252 249 248 248 248 251 253 253 251 250 250 249 249 251 250 249 249 245 243 242 231 217 215 214 209 206 214 222
314 312 311 312 312 312 312 311 311 310 309 308 307 307 306 306 306 305 303 301 299 299 299 298 296 295 296 296 297 297 297 298 299 300 299 298 296 294 292 289 285 282 280 279 278 277 275 274 272 269 268 267 267 265 263 260 257 253 250 248 245 245 248 251 251 248 245 245 246 246 248 248 246 246 245 242 239 232 225 225 220 210 208 216 218
310 310 311 312 312 312 312 312 311 310 308 307 307 306 305 305 305 304 303 301 300 299 299 298 297 296 298 299 299 299 299 299 300 302 302 301 299 297 293 289 285 284 283 281 279 277 275 273 272 270 269 269 268 267 265 261 256 253 250 246 243 245 249 250 248 247 243 243 244 244 246 247 244 243 242 241 238 233 229 228 224 216 215 217 215
310 312 312 312 312 313 313 312 311 309 308 307 306 305 305 304 303 303 303 301 300 299 299 298 297 297 299 301 300 300 301 301 302 304 304 304 303 302 297 292 289 287 284 280 276 273 272 271 271 270 270 271 270 269 267 262 256 252 249 247 247 249 252 250 248 246 243 243 244 243 244 245 244 241 239 238 237 234 230 228 226 222 221 219 216
314 314 314 313 313 313 313 312 311 310 309 308 306 304 305 305 303 303 302 300 299 298 298 298 297 298 300 301 301 302 302 302 303 304 305 304 304 302 298 295 293 291 288 284 279 275 273 271 270 270 270 270 269 268 267 264 259 254 251 249 250 252 252 251 249 245 241 240 241 240 240 241 240 238 236 235 235 234 232 230 227 225 225 224 222
317 315 314 314 313 313 313 313 312 311 309 308 306 305 305 305 304 303 301 300 299 298 299 299 298 298 300 300 301 302 303 303 304 304 304 305 304 302 299 297 296 294 292 290 287 285 283 281 279 277 275 273 270 268 266 264 261 258 254 251 250 250 251 250 248 242 238 237 237 237 237 237 236 235 234 233 233 232 231 232 230 227 227 227 227
317 315 314 313 313 314 314 314 313 311 310 310 307 305 306 306 305 304 302 300 299 298 299 300 299 299 299 300 302 303 302 302 302 301 302 302 302 301 300 298 297 295 293 290 289 289 288 288 287 285 282 279 276 274 271 267 262 258 254 250 249 249 249 247 243 238 234 233 231 232 236 236 235 235 235 234 234 232 231 232 233 230 228 228 227
316 315 314 314 315 316 315 314 313 312 312 311 309 306 306 306 304 304 303 301 299 298 298 299 298 298 297 297 299 300 300 299 299 298 297 297 297 297 295 294 293 291 289 288 288 289 288 287 287 288 286 283 281 279 277 272 267 262 256 250 248 249 248 244 239 234 229 227 227 229 234 236 235 237 238 236 234 233 229 229 231 230 227 226 226
316 316 316 316 316 317 316 314 314 314 314 313 310 306 304 303 303 302 302 300 299 297 297 298 297 296 294 293 293 295 296 296 295 295 296 295 293 292 290 289 288 288 286 284 285 287 287 285 285 286 287 287 286 285 282 277 271 266 261 254 250 249 247 241 235 231 227 225 225 228 233 238 238 237 238 234 229 227 225 222 221 221 220 218 217
317 317 317 317 317 317 316 314 314 316 315 313 309 306 304 303 302 300 299 298 298 296 295 295 293 291 290 291 292 293 294 294 294 294 294 292 289 287 285 284 283 282 282 281 281 283 285 285 285 285 285 287 288 289 287 282 272 263 259 256 250 247 244 239 234 231 229 227 227 230 234 236 235 231 228 224 222 223 220 215 212 211 211 209 205
318 316 316 317 316 316 315 314 315 315 313 311 308 306 306 305 302 299 298 297 295 293 291 291 290 289 290 293 294 294 294 295 296 297 294 291 288 287 285 283 280 277 276 277 279 279 279 280 281 282 282 283 284 284 287 287 274 258 250 248 244 240 239 238 234 232 231 229 229 230 231 228 225 222 220 217 218 219 216 211 209 206 201 198 196
317 315 315 316 315 315 314 314 315 313 310 308 307 306 305 303 299 298 298 297 294 293 294 295 295 296 296 297 299 299 298 298 300 301 300 298 298 298 296 293 290 286 283 285 286 284 281 278 279 280 279 280 283 283 285 289 282 263 247 241 239 236 235 235 233 231 230 228 227 226 223 219 217 216 214 212 214 214 210 205 204 201 195 194 197
316 314 316 315 314 314 314 313 314 311 307 306 307 307 307 304 299 296 296 298 298 297 298 298 300 301 301 301 301 300 299 301 304 305 304 303 302 301 299 297 297 295 293 293 292 288 285 282 281 281 279 277 278 280 281 286 288 280 261 247 242 239 235 233 231 229 228 226 224 222 218 214 212 211 208 209 210 208 204 202 200 195 192 194 197
314 313 315 315 314 313 313 313 312 309 306 306 306 307 308 307 306 303 300 300 302 302 302 302 303 304 304 304 304 303 303 305 306 305 304 303 301 300 299 299 298 296 295 295 292 287 284 281 279 279 279 276 275 277 279 281 286 287 279 261 246 238 234 231 228 227 227 225 222 220 216 211 209 207 206 206 205 201 198 198 197 194 194 196 195
312 312 313 312 312 312 311 312 311 307 306 307 307 306 306 307 309 311 311 308 305 304 304 305 306 308 308 308 308 308 307 307 306 305 305 305 305 305 304 302 302 301 300 300 297 292 286 281 276 276 276 274 272 275 277 278 280 284 286 278 258 241 234 231 229 226 225 225 223 218 213 210 207 206 204 202 198 194 191 191 193 193 195 198 196
312 310 311 311 311 311 311 311 310 307 306 307 307 307 306 303 304 309 312 314 313 310 308 307 307 309 311 312 311 310 309 309 310 309 309 310 310 309 307 305 305 305 305 304 300 293 287 282 277 275 274 271 270 269 270 271 273 274 278 280 272 254 239 233 233 230 226 227 227 219 212 210 207 203 200 197 194 190 189 188 191 191 191 195 195
314 310 310 309 309 309 310 311 309 306 306 306 305 305 304 302 301 303 307 313 316 317 318 318 317 316 315 314 314 314 313 313 313 311 311 312 311 309 308 309 309 308 306 303 298 291 287 284 280 276 274 272 271 267 262 260 263 266 268 272 273 264 247 233 231 231 227 227 227 220 213 210 205 198 194 192 190 189 188 187 187 187 188 191 191
316 314 312 311 309 309 310 310 307 305 304 305 305 304 303 304 304 303 303 304 307 309 312 315 317 318 317 315 315 316 315 315 314 314 313 313 313 313 314 313 310 307 304 300 295 289 285 282 279 275 273 270 267 265 262 256 255 258 262 265 267 265 252 235 227 228 226 223 223 219 213 208 204 198 192 187 185 186 187 188 188 188 188 188 187
320 316 315 314 313 312 311 310 307 304 303 304 305 304 304 304 303 303 302 301 300 300 301 305 310 313 314 314 315 316 317 316 316 316 315 314 315 316 314 307 300 298 297 294 293 291 287 284 280 277 273 268 263 261 260 257 252 252 255 258 263 263 252 234 222 223 223 219 218 216 211 206 202 197 191 188 188 189 189 188 189 189 188 187 185
320 317 315 316 316 316 314 312 308 305 305 305 305 305 305 305 305 305 304 303 302 303 302 304 308 310 312 315 318 320 319 318 317 316 316 316 318 317 310 300 295 293 291 291 292 291 288 286 284 281 278 273 265 258 256 255 253 251 249 251 254 255 247 231 219 219 221 217 212 210 207 204 200 195 190 190 191 191 190 187 186 187 188 186 183
320 317 315 316 317 317 315 313 310 309 309 309 308 308 308 308 309 309 308 308 308 307 307 307 309 308 309 314 318 320 317 314 313 314 317 320 321 318 311 304 299 295 292 293 294 293 291 291 290 288 285 279 268 257 251 251 250 250 249 248 248 247 244 236 224 219 220 218 212 208 205 202 199 195 192 191 189 186 185 183 182 182 183 183 182
322 318 317 318 320 319 316 312 311 313 313 312 312 312 312 313 314 314 313 313 313 312 312 311 310 310 312 314 318 319 316 313 313 316 318 320 319 317 315 312 309 306 305 305 305 303 299 296 295 293 289 283 272 257 248 247 248 249 249 248 245 240 234 228 220 216 218 219 216 210 205 200 197 194 192 189 186 182 181 181 182 181 180 181 184
323 321 322 324 323 320 317 313 311 312 313 313 314 316 316 316 316 317 317 316 315 315 315 313 313 316 319 320 321 324 325 324 324 323 321 320 320 322 323 323 320 318 316 313 311 310 306 303 301 297 292 285 274 260 249 245 244 246 249 249 243 231 219 215 214 215 217 217 213 206 200 195 191 188 187 187 186 183 181 181 182 183 182 183 183
325 323 324 326 324 321 317 314 313 314 314 313 315 318 318 319 319 319 319 317 316 315 316 316 317 321 323 325 328 333 334 331 327 326 324 323 323 323 324 325 324 321 318 316 314 314 314 313 310 307 302 291 274 258 249 244 244 248 249 241 226 212 207 209 212 214 214 212 206 198 193 189 185 183 184 185 183 182 181 180 180 181 181 180 177
327 325 325 326 324 321 318 317 318 319 318 319 321 323 322 322 322 322 321 319 318 317 317 319 322 325 326 329 333 336 336 332 328 327 325 324 323 323 323 325 325 323 320 320 318 317 321 323 320 320 329 334 310 271 252 245 244 243 233 214 201 198 202 206 207 208 207 203 196 191 187 185 184 183 182 180 177 175 175 175 174 175 174 173 172
329 327 326 325 323 320 320 322 323 324 326 328 329 329 328 327 326 324 323 321 321 322 322 322 325 327 328 331 335 337 337 335 332 330 328 325 325 326 326 327 329 328 327 328 327 326 331 336 334 336 355 13 15 1 328 268 243 232 218 205 200 200 202 200 198 198 196 190 185 184 181 178 178 176 172 171 170 169 169 169 169 169 169 169 169
332 331 329 326 323 323 325 327 329 330 332 334 334 333 333 331 329 329 327 326 326 326 325 326 328 329 330 334 338 340 340 339 337 335 333 331 330 330 330 332 335 337 338 340 341 342 346 350 351 354 6 18 22 21 20 17 347 249 225 214 205 200 198 196 193 191 188 181 176 174 171 168 168 167 165 166 166 164 164 165 165 164 164 165 165
336 334 331 328 326 327 330 332 335 336 338 340 339 339 338 337 335 334 333 331 330 330 330 331 333 333 333 336 340 343 343 344 343 341 341 340 338 337 337 339 342 345 347 349 352 357 2 5 7 9 13 18 21 22 22 21 16 3 305 231 205 194 193 192 189 186 183 178 171 166 163 163 163 162 162 164 164 163 163 164 164 163 163 163 164
339 337 335 332 331 332 334 337 340 342 343 343 342 340 340 341 340 338 337 336 334 334 335 337 339 340 340 342 344 346 348 349 349 349 348 348 347 347 347 349 351 354 356 358 2 7 12 15 16 17 18 20 23 26 27 26 25 25 23 36 171 174 179 181 180 178 176 172 167 162 159 158 159 160 161 161 161 161 161 162 163 162 162 163 163
344 343 342 339 337 337 340 343 346 346 346 346 344 343 342 343 343 343 342 342 341 340 341 343 345 346 347 348 349 351 352 353 354 355 355 356 357 357 359 1 3 5 8 10 12 15 17 20 21 23 24 26 28 31 34 37 40 42 44 48 63 113 151 161 165 165 166 165 163 159 155 153 152 154 156 155 155 156 156 157 160 160 160 160 160
351 350 348 347 345 345 346 348 350 349 349 348 348 347 347 347 348 348 348 348 347 347 348 350 351 353 353 354 354 355 356 357 360 2 3 5 7 8 9 11 12 13 14 16 18 19 21 24 26 28 30 31 33 35 38 43 47 51 55 59 64 81 116 140 148 152 155 157 156 154 151 148 147 148 150 150 150 151 150 150 152 152 152 153 154
356 355 353 351 350 349 350 350 351 351 351 350 350 351 353 353 353 352 352 352 353 353 353 354 356 357 358 358 359 359 0 2 3 5 7 9 11 12 14 16 18 20 21 21 22 23 24 26 30 34 36 38 40 42 44 46 50 53 57 62 69 80 98 117 130 138 143 145 145 144 141 138 136 137 139 140 141 141 141 141 142 143 144 145 147
357 357 354 353 352 352 352 354 355 355 355 355 354 355 356 355 354 354 354 354 355 357 357 357 358 359 0 1 2 2 3 3 4 6 9 10 12 14 16 18 20 24 26 27 28 29 29 29 31 33 37 40 43 46 48 49 51 55 58 63 70 80 91 102 114 125 131 133 133 133 131 128 126 125 126 128 129 129 130 131 133 135 137 137 137
354 355 354 354 355 355 355 357 357 357 357 358 358 358 357 356 354 354 355 355 355 357 357 358 359 0 2 4 5 5 5 6 6 8 11 13 14 17 18 19 21 25 28 30 33 34 34 35 35 35 36 38 42 46 49 51 53 57 62 68 74 82 91 98 105 114 121 124 124 124 122 120 118 117 117 119 121 121 120 123 127 130 131 129 128